Flag for Germany Weather past 2 weeks in Cuxhaven, Lower Saxony, Germany

Now
36 °F

Drizzle. Fog.


Feels Like: 28 °F
Forecast: 39 / 41 °F
Wind: 10 mph from Southwest

Location: Nordholz

Current Time: Jan 26, 2015 at 8:01:59 AM

Latest Report: Jan 26, 2015 at 7:20 AM


Visibility: 2 mi

Pressure: 30.07 "Hg

Humidity: 100%

Dew point: 36 °F

Location of CuxhavenLocation

Historic Weather in Cuxhaven — Graph

°F

Cuxhaven temperature yesterday

Maximum temperature yesterday: 39 °F (at 10:50 AM)
Minimum temperature yesterday: 34 °F (at 12:20 AM)
Average temperature yesterday: 37 °F

Past Weeks' High & Low Weather Summary

 TemperatureHumidityPressure
High48 °F (Jan 12, 10:20 PM)100% (Jan 13, 5:20 AM)30.33 "Hg (Jan 13, 5:20 AM)
Low18 °F (Jan 23, 8:20 AM)71% (Jan 11, 1:20 PM)29.30 "Hg (Jan 15, 1:20 PM)
Average36 °F91%29.86 "Hg
* Reported Jan 11 6:20 AM — Jan 26 6:20 AM, Cuxhaven, Weather by CustomWeather, © 2014

Note: Actual official high and low records may vary slightly from our data, if they occured in-between our weather recording intervals... More about our weather records

Advertising

Cuxhaven weather history for previous 24 hours

 ConditionsComfort  
Time TempWeatherWind HumidityBarometerVisibility
6:20 AM
Jan 26
36 °FDrizzle. Fog.10 mph100%30.09 "Hg1 mi
5:20 AM36 °FFog.10 mph100%30.09 "Hg1 mi
4:50 AM36 °FFog.9 mph100%30.12 "Hg1 mi
4:20 AM36 °FDrizzle. Fog.10 mph100%30.12 "Hg1 mi
3:20 AM36 °FFog.9 mph100%30.15 "Hg1 mi
3:04 AM36 °FFog.8 mph100%30.18 "Hg1 mi
2:56 AM36 °FFog.8 mph93%30.18 "Hg1 mi
2:20 AM36 °FFog.10 mph93%30.18 "Hg0 mi
1:20 AM36 °FFog.10 mph100%30.21 "Hg1 mi
12:20 AM36 °FFog.10 mph100%30.21 "Hg0 mi
11:20 PM
Jan 25
36 °FFog.8 mph100%30.24 "Hg0 mi
10:20 PM36 °FFog.8 mph100%30.24 "Hg1 mi
9:20 PM36 °FFog.7 mph100%30.27 "Hg1 mi
8:20 PM36 °FFog.7 mph100%30.27 "Hg3 mi
7:20 PM36 °FPassing clouds.8 mph100%30.27 "Hg4 mi
6:20 PM37 °FPassing clouds.7 mph93%30.27 "Hg5 mi
5:20 PM37 °FPassing clouds.7 mph93%30.27 "Hg5 mi
4:20 PM39 °FPartly sunny.7 mph93%30.27 "HgN/A
3:20 PM39 °FScattered clouds.8 mph93%30.27 "HgN/A
2:20 PM39 °FPartly sunny.8 mph93%30.24 "Hg5 mi
1:20 PM39 °FScattered showers. Broken clouds.10 mph93%30.27 "HgN/A
12:20 PM37 °FSprinkles. Broken clouds.10 mph93%30.27 "Hg3 mi
11:20 AM39 °FSprinkles. Fog.10 mph87%30.27 "Hg3 mi
10:50 AM39 °FFog.10 mph87%30.27 "Hg3 mi
10:20 AM37 °FFog.8 mph93%30.27 "Hg3 mi
9:20 AM37 °FPartly sunny.9 mph93%30.24 "Hg4 mi
8:20 AM37 °FPartly cloudy.9 mph93%30.24 "HgN/A
Weather by CustomWeather, © 2014

See weather overviewHow to use our weather pages